Location: Unspecified
(0.0000°N, 0.0000°E)
Time: 11:24:12
(UTC+00:00)

Vanguard 1 - Pass Details

Date: 23 November 2019
Orbit: 652 x 3831 km, 34.3° (Epoch: 07 December)

Event Time Altitude Azimuth Distance (km) Brightness Sun altitude
Rises 03:49:50 0° 226° (SW) 7,562 14.4 -27.1°
Reaches altitude 10° 03:54:53 10° 222° (SW) 6,748 14.1 -26.0°
Maximum altitude 04:18:10 60° 145° (SE) 3,967 13.3 -20.6°
Drops below altitude 10° 04:36:12 10° 69° (ENE) 5,472 14.5 -16.4°
Sets 04:39:43 0° 65° (ENE) 6,138 14.8 -15.6°
